Terminal Aerodrome Forecast
Issued by NWS Cleveland, OH

Home | Current Version | Previous Version | Graphics & Text | Print | Product List | Glossary Off
Versions: 1 2 3 4 5 6 7 8 9 10 11 12 13 14 15 16 17 18

014
FTUS41 KCLE 260131 AAA
TAFYNG
TAF AMD
KYNG 260131Z 2602/2624 12008KT P6SM BKN015
     FM260600 10004KT P6SM SCT015 BKN150
     FM261600 16012KT P6SM SCT040=

USA.gov is the U.S. government's official web portal to all federal, state and local government web resources and services.